owner,sensor,date,latitude,longitude,air_temperature,qcFlag 
COMPS,ioos:station:USF.COMPS:TAR:1,2011-11-01T00:00:00Z,28.1560,-82.7580,21.2,1111122 
COMPS,ioos:station:USF.COMPS:TAR:1,2011-11-01T00:06:00Z,28.1560,-82.7580,21.14,1111122 
COMPS,ioos:station:USF.COMPS:TAR:1,2011-11-01T00:12:00Z,28.1560,-82.7580,21.14,1111122 
COMPS,ioos:station:USF.COMPS:TAR:1,2011-11-01T00:18:00Z,28.1560,-82.7580,21.01,1111122 
COMPS,ioos:station:USF.COMPS:TAR:1,2011-11-01T00:24:00Z,28.1560,-82.7580,21.13,1111122 
COMPS,ioos:station:USF.COMPS:TAR:1,2011-11-01T00:30:00Z,28.1560,-82.7580,20.96,1111122 
COMPS,ioos:station:USF.COMPS:TAR:1,2011-11-01T00:36:00Z,28.1560,-82.7580,20.87,1111122 
COMPS,ioos:station:USF.COMPS:TAR:1,2011-11-01T00:42:00Z,28.1560,-82.7580,20.86,1111122 
COMPS,ioos:station:USF.COMPS:TAR:1,2011-11-01T00:48:00Z,28.1560,-82.7580,20.75,1111122 
COMPS,ioos:station:USF.COMPS:TAR:1,2011-11-01T00:54:00Z,28.1560,-82.7580,20.69,1111122 
COMPS,ioos:station:USF.COMPS:TAR:1,2011-11-01T01:00:00Z,28.1560,-82.7580,20.7,1111122 
COMPS,ioos:station:USF.COMPS:TAR:1,2011-11-01T01:06:00Z,28.1560,-82.7580,20.6,1111122 
COMPS,ioos:station:USF.COMPS:TAR:1,2011-11-01T01:12:00Z,28.1560,-82.7580,20.51,1111122 
COMPS,ioos:station:USF.COMPS:TAR:1,2011-11-01T01:18:00Z,28.1560,-82.7580,20.51,1111122 
COMPS,ioos:station:USF.COMPS:TAR:1,2011-11-01T01:24:00Z,28.1560,-82.7580,20.58,1111122 
COMPS,ioos:station:USF.COMPS:TAR:1,2011-11-01T01:30:00Z,28.1560,-82.7580,20.34,1111122 
COMPS,ioos:station:USF.COMPS:TAR:1,2011-11-01T01:36:00Z,28.1560,-82.7580,20.33,1111122 
COMPS,ioos:station:USF.COMPS:TAR:1,2011-11-01T01:42:00Z,28.1560,-82.7580,20.33,1111122 
COMPS,ioos:station:USF.COMPS:TAR:1,2011-11-01T01:48:00Z,28.1560,-82.7580,20.23,1111122 
COMPS,ioos:station:USF.COMPS:TAR:1,2011-11-01T01:54:00Z,28.1560,-82.7580,20.13,1111122 
COMPS,ioos:station:USF.COMPS:TAR:1,2011-11-01T02:00:00Z,28.1560,-82.7580,20.1,1111122 
COMPS,ioos:station:USF.COMPS:TAR:1,2011-11-01T04:00:00Z,28.1560,-82.7580,18.88,1111122 
COMPS,ioos:station:USF.COMPS:TAR:1,2011-11-01T04:06:00Z,28.1560,-82.7580,18.84,1111122 
COMPS,ioos:station:USF.COMPS:TAR:1,2011-11-01T04:12:00Z,28.1560,-82.7580,18.74,1111122 
COMPS,ioos:station:USF.COMPS:TAR:1,2011-11-01T04:18:00Z,28.1560,-82.7580,18.7,1111122 
COMPS,ioos:station:USF.COMPS:TAR:1,2011-11-01T04:24:00Z,28.1560,-82.7580,18.85,1111122 
COMPS,ioos:station:USF.COMPS:TAR:1,2011-11-01T04:30:00Z,28.1560,-82.7580,18.61,1111122 
COMPS,ioos:station:USF.COMPS:TAR:1,2011-11-01T04:36:00Z,28.1560,-82.7580,18.5,1111122 
COMPS,ioos:station:USF.COMPS:TAR:1,2011-11-01T04:42:00Z,28.1560,-82.7580,18.39,1111122 
COMPS,ioos:station:USF.COMPS:TAR:1,2011-11-01T04:48:00Z,28.1560,-82.7580,18.34,1111122 
COMPS,ioos:station:USF.COMPS:TAR:1,2011-11-01T04:54:00Z,28.1560,-82.7580,18.28,1111122 
COMPS,ioos:station:USF.COMPS:TAR:1,2011-11-01T05:00:00Z,28.1560,-82.7580,18.3,1111122 
COMPS,ioos:station:USF.COMPS:TAR:1,2011-11-01T07:00:00Z,28.1560,-82.7580,17.21,1111122 
COMPS,ioos:station:USF.COMPS:TAR:1,2011-11-01T07:06:00Z,28.1560,-82.7580,17.11,1111122 
COMPS,ioos:station:USF.COMPS:TAR:1,2011-11-01T07:12:00Z,28.1560,-82.7580,17.01,1111122 
COMPS,ioos:station:USF.COMPS:TAR:1,2011-11-01T07:18:00Z,28.1560,-82.7580,16.98,1111122 
COMPS,ioos:station:USF.COMPS:TAR:1,2011-11-01T07:24:00Z,28.1560,-82.7580,17.12,1111122 
COMPS,ioos:station:USF.COMPS:TAR:1,2011-11-01T07:30:00Z,28.1560,-82.7580,16.95,1111122 
COMPS,ioos:station:USF.COMPS:TAR:1,2011-11-01T07:36:00Z,28.1560,-82.7580,16.87,1111122 
COMPS,ioos:station:USF.COMPS:TAR:1,2011-11-01T07:42:00Z,28.1560,-82.7580,16.86,1111122 
COMPS,ioos:station:USF.COMPS:TAR:1,2011-11-01T07:48:00Z,28.1560,-82.7580,16.84,1111122 
COMPS,ioos:station:USF.COMPS:TAR:1,2011-11-01T07:54:00Z,28.1560,-82.7580,16.84,1111122 
COMPS,ioos:station:USF.COMPS:TAR:1,2011-11-01T08:00:00Z,28.1560,-82.7580,16.8,1111122 
COMPS,ioos:station:USF.COMPS:TAR:1,2011-11-01T08:06:00Z,28.1560,-82.7580,16.69,1111122 
COMPS,ioos:station:USF.COMPS:TAR:1,2011-11-01T08:12:00Z,28.1560,-82.7580,16.56,1111122 
COMPS,ioos:station:USF.COMPS:TAR:1,2011-11-01T08:18:00Z,28.1560,-82.7580,16.46,1111122 
COMPS,ioos:station:USF.COMPS:TAR:1,2011-11-01T08:24:00Z,28.1560,-82.7580,16.58,1111122 
COMPS,ioos:station:USF.COMPS:TAR:1,2011-11-01T08:30:00Z,28.1560,-82.7580,16.31,1111122 
COMPS,ioos:station:USF.COMPS:TAR:1,2011-11-01T08:36:00Z,28.1560,-82.7580,16.25,1111122 
COMPS,ioos:station:USF.COMPS:TAR:1,2011-11-01T08:42:00Z,28.1560,-82.7580,16.16,1111122 
COMPS,ioos:station:USF.COMPS:TAR:1,2011-11-01T08:48:00Z,28.1560,-82.7580,16.16,1111122 
COMPS,ioos:station:USF.COMPS:TAR:1,2011-11-01T08:54:00Z,28.1560,-82.7580,16.16,1111122 
COMPS,ioos:station:USF.COMPS:TAR:1,2011-11-01T09:00:00Z,28.1560,-82.7580,16.2,1111122 
COMPS,ioos:station:USF.COMPS:TAR:1,2011-11-01T09:06:00Z,28.1560,-82.7580,16.03,1111122 
COMPS,ioos:station:USF.COMPS:TAR:1,2011-11-01T09:12:00Z,28.1560,-82.7580,15.96,1111122 
COMPS,ioos:station:USF.COMPS:TAR:1,2011-11-01T09:18:00Z,28.1560,-82.7580,15.91,1111122 
COMPS,ioos:station:USF.COMPS:TAR:1,2011-11-01T09:24:00Z,28.1560,-82.7580,15.97,1111122 
COMPS,ioos:station:USF.COMPS:TAR:1,2011-11-01T09:30:00Z,28.1560,-82.7580,15.76,1111122 
COMPS,ioos:station:USF.COMPS:TAR:1,2011-11-01T09:36:00Z,28.1560,-82.7580,15.74,1111122 
COMPS,ioos:station:USF.COMPS:TAR:1,2011-11-01T09:42:00Z,28.1560,-82.7580,15.74,1111122 
COMPS,ioos:station:USF.COMPS:TAR:1,2011-11-01T09:48:00Z,28.1560,-82.7580,15.71,1111122 
COMPS,ioos:station:USF.COMPS:TAR:1,2011-11-01T09:54:00Z,28.1560,-82.7580,15.63,1111122 
COMPS,ioos:station:USF.COMPS:TAR:1,2011-11-01T10:00:00Z,28.1560,-82.7580,15.6,1111122 
COMPS,ioos:station:USF.COMPS:TAR:1,2011-11-01T12:00:00Z,28.1560,-82.7580,15.29,1111122 
COMPS,ioos:station:USF.COMPS:TAR:1,2011-11-01T12:06:00Z,28.1560,-82.7580,15.32,1111122 
COMPS,ioos:station:USF.COMPS:TAR:1,2011-11-01T12:12:00Z,28.1560,-82.7580,15.44,1111122 
COMPS,ioos:station:USF.COMPS:TAR:1,2011-11-01T12:18:00Z,28.1560,-82.7580,15.49,1111122 
COMPS,ioos:station:USF.COMPS:TAR:1,2011-11-01T12:24:00Z,28.1560,-82.7580,15.7,1111122 
COMPS,ioos:station:USF.COMPS:TAR:1,2011-11-01T12:30:00Z,28.1560,-82.7580,15.86,1111122 
COMPS,ioos:station:USF.COMPS:TAR:1,2011-11-01T12:36:00Z,28.1560,-82.7580,16.19,1111122 
COMPS,ioos:station:USF.COMPS:TAR:1,2011-11-01T12:42:00Z,28.1560,-82.7580,16.44,1111122 
COMPS,ioos:station:USF.COMPS:TAR:1,2011-11-01T12:48:00Z,28.1560,-82.7580,16.67,1111122 
COMPS,ioos:station:USF.COMPS:TAR:1,2011-11-01T12:54:00Z,28.1560,-82.7580,16.79,1111122 
COMPS,ioos:station:USF.COMPS:TAR:1,2011-11-01T13:00:00Z,28.1560,-82.7580,16.8,1111122 
COMPS,ioos:station:USF.COMPS:TAR:1,2011-11-01T13:06:00Z,28.1560,-82.7580,17.21,1111122 
COMPS,ioos:station:USF.COMPS:TAR:1,2011-11-01T13:12:00Z,28.1560,-82.7580,17.18,1111122 
COMPS,ioos:station:USF.COMPS:TAR:1,2011-11-01T13:18:00Z,28.1560,-82.7580,17.21,1111122 
COMPS,ioos:station:USF.COMPS:TAR:1,2011-11-01T13:24:00Z,28.1560,-82.7580,17.56,1111122 
COMPS,ioos:station:USF.COMPS:TAR:1,2011-11-01T13:30:00Z,28.1560,-82.7580,17.56,1111122 
COMPS,ioos:station:USF.COMPS:TAR:1,2011-11-01T13:36:00Z,28.1560,-82.7580,17.78,1111122 
COMPS,ioos:station:USF.COMPS:TAR:1,2011-11-01T13:42:00Z,28.1560,-82.7580,17.82,1111122 
COMPS,ioos:station:USF.COMPS:TAR:1,2011-11-01T13:48:00Z,28.1560,-82.7580,17.99,1111122 
COMPS,ioos:station:USF.COMPS:TAR:1,2011-11-01T13:54:00Z,28.1560,-82.7580,18.19,1111122 
COMPS,ioos:station:USF.COMPS:TAR:1,2011-11-01T14:00:00Z,28.1560,-82.7580,18.2,1111122 
COMPS,ioos:station:USF.COMPS:TAR:1,2011-11-01T15:00:00Z,28.1560,-82.7580,20.0,1111122 
COMPS,ioos:station:USF.COMPS:TAR:1,2011-11-01T15:06:00Z,28.1560,-82.7580,20.21,1111122 
COMPS,ioos:station:USF.COMPS:TAR:1,2011-11-01T15:12:00Z,28.1560,-82.7580,20.31,1111122 
COMPS,ioos:station:USF.COMPS:TAR:1,2011-11-01T15:18:00Z,28.1560,-82.7580,20.33,1111122 
COMPS,ioos:station:USF.COMPS:TAR:1,2011-11-01T15:24:00Z,28.1560,-82.7580,20.85,1111122 
COMPS,ioos:station:USF.COMPS:TAR:1,2011-11-01T15:30:00Z,28.1560,-82.7580,20.91,1111122 
COMPS,ioos:station:USF.COMPS:TAR:1,2011-11-01T15:36:00Z,28.1560,-82.7580,20.86,1111122 
COMPS,ioos:station:USF.COMPS:TAR:1,2011-11-01T15:42:00Z,28.1560,-82.7580,21.11,1111122 
COMPS,ioos:station:USF.COMPS:TAR:1,2011-11-01T15:48:00Z,28.1560,-82.7580,20.9,1111122 
COMPS,ioos:station:USF.COMPS:TAR:1,2011-11-01T15:54:00Z,28.1560,-82.7580,21.22,1111122 
COMPS,ioos:station:USF.COMPS:TAR:1,2011-11-01T16:00:00Z,28.1560,-82.7580,21.2,1111122 
COMPS,ioos:station:USF.COMPS:TAR:1,2011-11-01T16:06:00Z,28.1560,-82.7580,21.39,1111122 
COMPS,ioos:station:USF.COMPS:TAR:1,2011-11-01T16:12:00Z,28.1560,-82.7580,21.74,1111122 
COMPS,ioos:station:USF.COMPS:TAR:1,2011-11-01T16:18:00Z,28.1560,-82.7580,21.92,1111122 
COMPS,ioos:station:USF.COMPS:TAR:1,2011-11-01T16:24:00Z,28.1560,-82.7580,21.92,1111122 
COMPS,ioos:station:USF.COMPS:TAR:1,2011-11-01T16:30:00Z,28.1560,-82.7580,21.56,1111122 
COMPS,ioos:station:USF.COMPS:TAR:1,2011-11-01T16:36:00Z,28.1560,-82.7580,21.83,1111122 
COMPS,ioos:station:USF.COMPS:TAR:1,2011-11-01T16:42:00Z,28.1560,-82.7580,22.27,1111122 
COMPS,ioos:station:USF.COMPS:TAR:1,2011-11-01T16:48:00Z,28.1560,-82.7580,22.34,1111122 
COMPS,ioos:station:USF.COMPS:TAR:1,2011-11-01T16:54:00Z,28.1560,-82.7580,22.48,1111122 
COMPS,ioos:station:USF.COMPS:TAR:1,2011-11-01T17:00:00Z,28.1560,-82.7580,22.5,1111122 
COMPS,ioos:station:USF.COMPS:TAR:1,2011-11-01T19:00:00Z,28.1560,-82.7580,24.08,1111122 
COMPS,ioos:station:USF.COMPS:TAR:1,2011-11-01T19:06:00Z,28.1560,-82.7580,23.97,1111122 
COMPS,ioos:station:USF.COMPS:TAR:1,2011-11-01T19:12:00Z,28.1560,-82.7580,23.82,1111122 
COMPS,ioos:station:USF.COMPS:TAR:1,2011-11-01T19:18:00Z,28.1560,-82.7580,23.89,1111122 
COMPS,ioos:station:USF.COMPS:TAR:1,2011-11-01T19:24:00Z,28.1560,-82.7580,24.13,1111122 
COMPS,ioos:station:USF.COMPS:TAR:1,2011-11-01T19:30:00Z,28.1560,-82.7580,24.39,1111122 
COMPS,ioos:station:USF.COMPS:TAR:1,2011-11-01T19:36:00Z,28.1560,-82.7580,24.35,1111122 
COMPS,ioos:station:USF.COMPS:TAR:1,2011-11-01T19:42:00Z,28.1560,-82.7580,24.47,1111122 
COMPS,ioos:station:USF.COMPS:TAR:1,2011-11-01T19:48:00Z,28.1560,-82.7580,24.4,1111122 
COMPS,ioos:station:USF.COMPS:TAR:1,2011-11-01T19:54:00Z,28.1560,-82.7580,24.2,1111122 
COMPS,ioos:station:USF.COMPS:TAR:1,2011-11-01T20:00:00Z,28.1560,-82.7580,24.2,1111122 
COMPS,ioos:station:USF.COMPS:TAR:1,2011-11-01T20:06:00Z,28.1560,-82.7580,24.02,1111122 
COMPS,ioos:station:USF.COMPS:TAR:1,2011-11-01T20:12:00Z,28.1560,-82.7580,24.12,1111122 
COMPS,ioos:station:USF.COMPS:TAR:1,2011-11-01T20:18:00Z,28.1560,-82.7580,23.96,1111122 
COMPS,ioos:station:USF.COMPS:TAR:1,2011-11-01T20:24:00Z,28.1560,-82.7580,23.94,1111122 
COMPS,ioos:station:USF.COMPS:TAR:1,2011-11-01T20:30:00Z,28.1560,-82.7580,23.72,1111122 
COMPS,ioos:station:USF.COMPS:TAR:1,2011-11-01T20:36:00Z,28.1560,-82.7580,23.63,1111122 
COMPS,ioos:station:USF.COMPS:TAR:1,2011-11-01T20:42:00Z,28.1560,-82.7580,23.63,1111122 
COMPS,ioos:station:USF.COMPS:TAR:1,2011-11-01T20:48:00Z,28.1560,-82.7580,23.74,1111122 
COMPS,ioos:station:USF.COMPS:TAR:1,2011-11-01T20:54:00Z,28.1560,-82.7580,23.65,1111122 
COMPS,ioos:station:USF.COMPS:TAR:1,2011-11-01T21:00:00Z,28.1560,-82.7580,23.7,1111122 
COMPS,ioos:station:USF.COMPS:TAR:1,2011-11-01T21:06:00Z,28.1560,-82.7580,23.34,1111122 
COMPS,ioos:station:USF.COMPS:TAR:1,2011-11-01T21:12:00Z,28.1560,-82.7580,23.32,1111122 
COMPS,ioos:station:USF.COMPS:TAR:1,2011-11-01T21:18:00Z,28.1560,-82.7580,23.45,1111122 
COMPS,ioos:station:USF.COMPS:TAR:1,2011-11-01T21:24:00Z,28.1560,-82.7580,23.59,1111122 
COMPS,ioos:station:USF.COMPS:TAR:1,2011-11-01T21:30:00Z,28.1560,-82.7580,23.23,1111122 
COMPS,ioos:station:USF.COMPS:TAR:1,2011-11-01T21:36:00Z,28.1560,-82.7580,23.19,1111122 
COMPS,ioos:station:USF.COMPS:TAR:1,2011-11-01T21:42:00Z,28.1560,-82.7580,23.18,1111122 
COMPS,ioos:station:USF.COMPS:TAR:1,2011-11-01T21:48:00Z,28.1560,-82.7580,23.18,1111122 
COMPS,ioos:station:USF.COMPS:TAR:1,2011-11-01T21:54:00Z,28.1560,-82.7580,22.99,1111122 
COMPS,ioos:station:USF.COMPS:TAR:1,2011-11-01T22:00:00Z,28.1560,-82.7580,23.0,1111122 
COMPS,ioos:station:USF.COMPS:TAR:1,2011-11-01T22:06:00Z,28.1560,-82.7580,22.51,1111122 
COMPS,ioos:station:USF.COMPS:TAR:1,2011-11-01T22:12:00Z,28.1560,-82.7580,22.36,1111122 
COMPS,ioos:station:USF.COMPS:TAR:1,2011-11-01T22:18:00Z,28.1560,-82.7580,22.24,1111122 
COMPS,ioos:station:USF.COMPS:TAR:1,2011-11-01T22:24:00Z,28.1560,-82.7580,22.27,1111122 
COMPS,ioos:station:USF.COMPS:TAR:1,2011-11-01T22:30:00Z,28.1560,-82.7580,22.05,1111122 
COMPS,ioos:station:USF.COMPS:TAR:1,2011-11-01T22:36:00Z,28.1560,-82.7580,21.92,1111122 
COMPS,ioos:station:USF.COMPS:TAR:1,2011-11-01T22:42:00Z,28.1560,-82.7580,21.77,1111122 
COMPS,ioos:station:USF.COMPS:TAR:1,2011-11-01T22:48:00Z,28.1560,-82.7580,21.69,1111122 
COMPS,ioos:station:USF.COMPS:TAR:1,2011-11-01T22:54:00Z,28.1560,-82.7580,21.58,1111122 
COMPS,ioos:station:USF.COMPS:TAR:1,2011-11-02T00:00:00Z,28.1560,-82.7580,20.09,1111122 
COMPS,ioos:station:USF.COMPS:TAR:1,2011-11-02T00:06:00Z,28.1560,-82.7580,19.95,1111122 
COMPS,ioos:station:USF.COMPS:TAR:1,2011-11-02T00:12:00Z,28.1560,-82.7580,19.87,1111122 
COMPS,ioos:station:USF.COMPS:TAR:1,2011-11-02T00:18:00Z,28.1560,-82.7580,19.74,1111122 
COMPS,ioos:station:USF.COMPS:TAR:1,2011-11-02T00:24:00Z,28.1560,-82.7580,19.82,1111122 
COMPS,ioos:station:USF.COMPS:TAR:1,2011-11-02T00:30:00Z,28.1560,-82.7580,19.49,1111122 
COMPS,ioos:station:USF.COMPS:TAR:1,2011-11-02T00:36:00Z,28.1560,-82.7580,19.31,1111122 
COMPS,ioos:station:USF.COMPS:TAR:1,2011-11-02T00:42:00Z,28.1560,-82.7580,19.21,1111122 
COMPS,ioos:station:USF.COMPS:TAR:1,2011-11-02T00:48:00Z,28.1560,-82.7580,19.11,1111122 
COMPS,ioos:station:USF.COMPS:TAR:1,2011-11-02T00:54:00Z,28.1560,-82.7580,18.99,1111122 
COMPS,ioos:station:USF.COMPS:TAR:1,2011-11-02T01:00:00Z,28.1560,-82.7580,19.0,1111122 
COMPS,ioos:station:USF.COMPS:TAR:1,2011-11-02T07:00:00Z,28.1560,-82.7580,16.09,1111122 
COMPS,ioos:station:USF.COMPS:TAR:1,2011-11-02T07:06:00Z,28.1560,-82.7580,16.03,1111122 
COMPS,ioos:station:USF.COMPS:TAR:1,2011-11-02T07:12:00Z,28.1560,-82.7580,16.03,1111122 
COMPS,ioos:station:USF.COMPS:TAR:1,2011-11-02T07:18:00Z,28.1560,-82.7580,16.01,1111122 
COMPS,ioos:station:USF.COMPS:TAR:1,2011-11-02T07:24:00Z,28.1560,-82.7580,16.08,1111122 
COMPS,ioos:station:USF.COMPS:TAR:1,2011-11-02T07:30:00Z,28.1560,-82.7580,15.89,1111122 
COMPS,ioos:station:USF.COMPS:TAR:1,2011-11-02T07:36:00Z,28.1560,-82.7580,15.81,1111122 
COMPS,ioos:station:USF.COMPS:TAR:1,2011-11-02T07:42:00Z,28.1560,-82.7580,15.76,1111122 
COMPS,ioos:station:USF.COMPS:TAR:1,2011-11-02T07:48:00Z,28.1560,-82.7580,15.75,1111122 
COMPS,ioos:station:USF.COMPS:TAR:1,2011-11-02T07:54:00Z,28.1560,-82.7580,15.65,1111122 
COMPS,ioos:station:USF.COMPS:TAR:1,2011-11-02T08:00:00Z,28.1560,-82.7580,15.7,1111122 
COMPS,ioos:station:USF.COMPS:TAR:1,2011-11-02T09:00:00Z,28.1560,-82.7580,15.35,1111122 
COMPS,ioos:station:USF.COMPS:TAR:1,2011-11-02T09:06:00Z,28.1560,-82.7580,15.24,1111122 
COMPS,ioos:station:USF.COMPS:TAR:1,2011-11-02T09:12:00Z,28.1560,-82.7580,15.21,1111122 
COMPS,ioos:station:USF.COMPS:TAR:1,2011-11-02T09:18:00Z,28.1560,-82.7580,15.18,1111122 
COMPS,ioos:station:USF.COMPS:TAR:1,2011-11-02T09:24:00Z,28.1560,-82.7580,15.26,1111122 
COMPS,ioos:station:USF.COMPS:TAR:1,2011-11-02T09:30:00Z,28.1560,-82.7580,15.08,1111122 
COMPS,ioos:station:USF.COMPS:TAR:1,2011-11-02T09:36:00Z,28.1560,-82.7580,15.06,1111122 
COMPS,ioos:station:USF.COMPS:TAR:1,2011-11-02T09:42:00Z,28.1560,-82.7580,15.05,1111122 
COMPS,ioos:station:USF.COMPS:TAR:1,2011-11-02T09:48:00Z,28.1560,-82.7580,14.98,1111122 
COMPS,ioos:station:USF.COMPS:TAR:1,2011-11-02T09:54:00Z,28.1560,-82.7580,14.93,1111122 
COMPS,ioos:station:USF.COMPS:TAR:1,2011-11-02T10:00:00Z,28.1560,-82.7580,14.9,1111122 
COMPS,ioos:station:USF.COMPS:TAR:1,2011-11-02T10:06:00Z,28.1560,-82.7580,14.81,1111122 
COMPS,ioos:station:USF.COMPS:TAR:1,2011-11-02T10:12:00Z,28.1560,-82.7580,14.76,1111122 
COMPS,ioos:station:USF.COMPS:TAR:1,2011-11-02T10:18:00Z,28.1560,-82.7580,14.7,1111122 
COMPS,ioos:station:USF.COMPS:TAR:1,2011-11-02T10:24:00Z,28.1560,-82.7580,14.8,1111122 
COMPS,ioos:station:USF.COMPS:TAR:1,2011-11-02T10:30:00Z,28.1560,-82.7580,14.67,1111122 
COMPS,ioos:station:USF.COMPS:TAR:1,2011-11-02T10:36:00Z,28.1560,-82.7580,14.67,1111122 
COMPS,ioos:station:USF.COMPS:TAR:1,2011-11-02T10:42:00Z,28.1560,-82.7580,14.68,1111122 
COMPS,ioos:station:USF.COMPS:TAR:1,2011-11-02T10:48:00Z,28.1560,-82.7580,14.68,1111122 
COMPS,ioos:station:USF.COMPS:TAR:1,2011-11-02T10:54:00Z,28.1560,-82.7580,14.68,1111122 
COMPS,ioos:station:USF.COMPS:TAR:1,2011-11-02T11:00:00Z,28.1560,-82.7580,14.7,1111122 
COMPS,ioos:station:USF.COMPS:TAR:1,2011-11-02T12:00:00Z,28.1560,-82.7580,14.53,1111122 
COMPS,ioos:station:USF.COMPS:TAR:1,2011-11-02T12:06:00Z,28.1560,-82.7580,14.55,1111122 
COMPS,ioos:station:USF.COMPS:TAR:1,2011-11-02T12:12:00Z,28.1560,-82.7580,14.68,1111122 
COMPS,ioos:station:USF.COMPS:TAR:1,2011-11-02T12:18:00Z,28.1560,-82.7580,14.76,1111122 
COMPS,ioos:station:USF.COMPS:TAR:1,2011-11-02T12:24:00Z,28.1560,-82.7580,14.93,1111122 
COMPS,ioos:station:USF.COMPS:TAR:1,2011-11-02T12:30:00Z,28.1560,-82.7580,15.08,1111122 
COMPS,ioos:station:USF.COMPS:TAR:1,2011-11-02T12:36:00Z,28.1560,-82.7580,15.57,1111122 
COMPS,ioos:station:USF.COMPS:TAR:1,2011-11-02T12:42:00Z,28.1560,-82.7580,16.05,1111122 
COMPS,ioos:station:USF.COMPS:TAR:1,2011-11-02T12:48:00Z,28.1560,-82.7580,16.17,1111122 
COMPS,ioos:station:USF.COMPS:TAR:1,2011-11-02T12:54:00Z,28.1560,-82.7580,16.54,1111122 
COMPS,ioos:station:USF.COMPS:TAR:1,2011-11-02T13:00:00Z,28.1560,-82.7580,16.5,1111122 
COMPS,ioos:station:USF.COMPS:TAR:1,2011-11-02T13:06:00Z,28.1560,-82.7580,17.2,1111122 
COMPS,ioos:station:USF.COMPS:TAR:1,2011-11-02T13:12:00Z,28.1560,-82.7580,17.32,1111122 
COMPS,ioos:station:USF.COMPS:TAR:1,2011-11-02T13:18:00Z,28.1560,-82.7580,17.83,1111122 
COMPS,ioos:station:USF.COMPS:TAR:1,2011-11-02T13:24:00Z,28.1560,-82.7580,18.2,1111122 
COMPS,ioos:station:USF.COMPS:TAR:1,2011-11-02T13:30:00Z,28.1560,-82.7580,18.47,1111122 
COMPS,ioos:station:USF.COMPS:TAR:1,2011-11-02T13:36:00Z,28.1560,-82.7580,18.81,1111122 
COMPS,ioos:station:USF.COMPS:TAR:1,2011-11-02T13:42:00Z,28.1560,-82.7580,19.07,1111122 
COMPS,ioos:station:USF.COMPS:TAR:1,2011-11-02T13:48:00Z,28.1560,-82.7580,19.58,1111122 
COMPS,ioos:station:USF.COMPS:TAR:1,2011-11-02T13:54:00Z,28.1560,-82.7580,20.01,1111122 
COMPS,ioos:station:USF.COMPS:TAR:1,2011-11-02T14:00:00Z,28.1560,-82.7580,20.0,1111122 
COMPS,ioos:station:USF.COMPS:TAR:1,2011-11-02T14:06:00Z,28.1560,-82.7580,20.72,1111122 
COMPS,ioos:station:USF.COMPS:TAR:1,2011-11-02T14:12:00Z,28.1560,-82.7580,20.92,1111122 
COMPS,ioos:station:USF.COMPS:TAR:1,2011-11-02T14:18:00Z,28.1560,-82.7580,21.45,1111122 
COMPS,ioos:station:USF.COMPS:TAR:1,2011-11-02T14:24:00Z,28.1560,-82.7580,21.71,1111122 
COMPS,ioos:station:USF.COMPS:TAR:1,2011-11-02T14:30:00Z,28.1560,-82.7580,21.92,1111122 
COMPS,ioos:station:USF.COMPS:TAR:1,2011-11-02T14:36:00Z,28.1560,-82.7580,21.88,1111122 
COMPS,ioos:station:USF.COMPS:TAR:1,2011-11-02T14:42:00Z,28.1560,-82.7580,22.25,1111122 
COMPS,ioos:station:USF.COMPS:TAR:1,2011-11-02T14:48:00Z,28.1560,-82.7580,22.55,1111122 
COMPS,ioos:station:USF.COMPS:TAR:1,2011-11-02T14:54:00Z,28.1560,-82.7580,22.93,1111122 
COMPS,ioos:station:USF.COMPS:TAR:1,2011-11-02T15:00:00Z,28.1560,-82.7580,22.9,1111122 
COMPS,ioos:station:USF.COMPS:TAR:1,2011-11-02T15:06:00Z,28.1560,-82.7580,22.93,1111122 
COMPS,ioos:station:USF.COMPS:TAR:1,2011-11-02T15:12:00Z,28.1560,-82.7580,23.42,1111122 
COMPS,ioos:station:USF.COMPS:TAR:1,2011-11-02T15:18:00Z,28.1560,-82.7580,23.25,1111122 
COMPS,ioos:station:USF.COMPS:TAR:1,2011-11-02T15:24:00Z,28.1560,-82.7580,23.04,1111122 
COMPS,ioos:station:USF.COMPS:TAR:1,2011-11-02T15:30:00Z,28.1560,-82.7580,22.95,1111122 
COMPS,ioos:station:USF.COMPS:TAR:1,2011-11-02T15:36:00Z,28.1560,-82.7580,23.52,1111122 
COMPS,ioos:station:USF.COMPS:TAR:1,2011-11-02T15:42:00Z,28.1560,-82.7580,23.69,1111122 
COMPS,ioos:station:USF.COMPS:TAR:1,2011-11-02T15:48:00Z,28.1560,-82.7580,23.96,1111122 
COMPS,ioos:station:USF.COMPS:TAR:1,2011-11-02T15:54:00Z,28.1560,-82.7580,24.07,1111122 
COMPS,ioos:station:USF.COMPS:TAR:1,2011-11-02T16:00:00Z,28.1560,-82.7580,24.1,1111122 
COMPS,ioos:station:USF.COMPS:TAR:1,2011-11-02T17:00:00Z,28.1560,-82.7580,24.62,1111122 
COMPS,ioos:station:USF.COMPS:TAR:1,2011-11-02T17:06:00Z,28.1560,-82.7580,24.73,1111122 
COMPS,ioos:station:USF.COMPS:TAR:1,2011-11-02T17:12:00Z,28.1560,-82.7580,25.14,1111122 
COMPS,ioos:station:USF.COMPS:TAR:1,2011-11-02T17:18:00Z,28.1560,-82.7580,25.05,1111122 
COMPS,ioos:station:USF.COMPS:TAR:1,2011-11-02T17:24:00Z,28.1560,-82.7580,25.33,1111122 
COMPS,ioos:station:USF.COMPS:TAR:1,2011-11-02T17:30:00Z,28.1560,-82.7580,25.22,1111122 
COMPS,ioos:station:USF.COMPS:TAR:1,2011-11-02T17:36:00Z,28.1560,-82.7580,25.33,1111122 
COMPS,ioos:station:USF.COMPS:TAR:1,2011-11-02T17:42:00Z,28.1560,-82.7580,25.88,1111122 
COMPS,ioos:station:USF.COMPS:TAR:1,2011-11-02T17:48:00Z,28.1560,-82.7580,25.79,1111122 
COMPS,ioos:station:USF.COMPS:TAR:1,2011-11-02T17:54:00Z,28.1560,-82.7580,25.74,1111122 
COMPS,ioos:station:USF.COMPS:TAR:1,2011-11-02T18:00:00Z,28.1560,-82.7580,25.7,1111122 
COMPS,ioos:station:USF.COMPS:TAR:1,2011-11-02T18:06:00Z,28.1560,-82.7580,25.73,1111122 
COMPS,ioos:station:USF.COMPS:TAR:1,2011-11-02T18:12:00Z,28.1560,-82.7580,25.99,1111122 
COMPS,ioos:station:USF.COMPS:TAR:1,2011-11-02T18:18:00Z,28.1560,-82.7580,25.99,1111122 
COMPS,ioos:station:USF.COMPS:TAR:1,2011-11-02T18:24:00Z,28.1560,-82.7580,25.98,1111122 
COMPS,ioos:station:USF.COMPS:TAR:1,2011-11-02T18:30:00Z,28.1560,-82.7580,26.01,1111122 
COMPS,ioos:station:USF.COMPS:TAR:1,2011-11-02T18:36:00Z,28.1560,-82.7580,26.31,1111122 
COMPS,ioos:station:USF.COMPS:TAR:1,2011-11-02T18:42:00Z,28.1560,-82.7580,26.08,1111122 
COMPS,ioos:station:USF.COMPS:TAR:1,2011-11-02T18:48:00Z,28.1560,-82.7580,26.09,1111122 
COMPS,ioos:station:USF.COMPS:TAR:1,2011-11-02T18:54:00Z,28.1560,-82.7580,25.94,1111122 
COMPS,ioos:station:USF.COMPS:TAR:1,2011-11-02T19:00:00Z,28.1560,-82.7580,25.9,1111122 
COMPS,ioos:station:USF.COMPS:TAR:1,2011-11-02T19:06:00Z,28.1560,-82.7580,25.99,1111122 
COMPS,ioos:station:USF.COMPS:TAR:1,2011-11-02T19:12:00Z,28.1560,-82.7580,25.74,1111122 
COMPS,ioos:station:USF.COMPS:TAR:1,2011-11-02T19:18:00Z,28.1560,-82.7580,25.92,1111122 
COMPS,ioos:station:USF.COMPS:TAR:1,2011-11-02T19:24:00Z,28.1560,-82.7580,26.31,1111122 
COMPS,ioos:station:USF.COMPS:TAR:1,2011-11-02T19:30:00Z,28.1560,-82.7580,26.3,1111122 
COMPS,ioos:station:USF.COMPS:TAR:1,2011-11-02T19:36:00Z,28.1560,-82.7580,26.28,1111122 
COMPS,ioos:station:USF.COMPS:TAR:1,2011-11-02T19:42:00Z,28.1560,-82.7580,25.77,1111122 
COMPS,ioos:station:USF.COMPS:TAR:1,2011-11-02T19:48:00Z,28.1560,-82.7580,25.49,1111122 
COMPS,ioos:station:USF.COMPS:TAR:1,2011-11-02T19:54:00Z,28.1560,-82.7580,25.87,1111122 
COMPS,ioos:station:USF.COMPS:TAR:1,2011-11-02T20:00:00Z,28.1560,-82.7580,25.9,1111122 
COMPS,ioos:station:USF.COMPS:TAR:1,2011-11-02T20:06:00Z,28.1560,-82.7580,25.83,1111122 
COMPS,ioos:station:USF.COMPS:TAR:1,2011-11-02T20:12:00Z,28.1560,-82.7580,26.28,1111122 
COMPS,ioos:station:USF.COMPS:TAR:1,2011-11-02T20:18:00Z,28.1560,-82.7580,26.08,1111122 
COMPS,ioos:station:USF.COMPS:TAR:1,2011-11-02T20:24:00Z,28.1560,-82.7580,25.86,1111122 
COMPS,ioos:station:USF.COMPS:TAR:1,2011-11-02T20:30:00Z,28.1560,-82.7580,25.96,1111122 
COMPS,ioos:station:USF.COMPS:TAR:1,2011-11-02T20:36:00Z,28.1560,-82.7580,26.09,1111122 
COMPS,ioos:station:USF.COMPS:TAR:1,2011-11-02T20:42:00Z,28.1560,-82.7580,26.04,1111122 
COMPS,ioos:station:USF.COMPS:TAR:1,2011-11-02T20:48:00Z,28.1560,-82.7580,26.12,1111122 
COMPS,ioos:station:USF.COMPS:TAR:1,2011-11-02T20:54:00Z,28.1560,-82.7580,26.01,1111122 
COMPS,ioos:station:USF.COMPS:TAR:1,2011-11-02T21:00:00Z,28.1560,-82.7580,26.0,1111122 
COMPS,ioos:station:USF.COMPS:TAR:1,2011-11-02T23:00:00Z,28.1560,-82.7580,23.54,1111122 
COMPS,ioos:station:USF.COMPS:TAR:1,2011-11-02T23:06:00Z,28.1560,-82.7580,23.32,1111122 